Black River Falls, WI

6:50 PM CST on January 22, 2018 (GMT -0600)
Black River Falls Area

Weather History for KBCK - April, 2014

Change the Weather History Date:

Tuesday, April 29, 2014

  Actual Average (KCMY) Record (KCMY)
Temperature  
Mean Temperature 38 °F -  
Max Temperature 42 °F 66 °F 92 °F (1952)
Min Temperature 33 °F 39 °F 23 °F (1958)
Degree Days  
Heating Degree Days 28    
Moisture  
Dew Point 39 °F    
Average Humidity 97    
Maximum Humidity 100    
Minimum Humidity 76    
Precipitation  
Precipitation 0.55 in - - ()
Sea Level Pressure  
Sea Level Pressure 29.60 in    
Wind  
Wind Speed 10 mph (NE)    
Max Wind Speed 16 mph    
Max Gust Speed 26 mph    
Visibility 7 miles    
Events Rain , Snow    
Averages and records for this station are not official NWS values.
T = Trace of Precipitation, MM = Missing Value Source: NWS Daily Summary

Daily Weather History Graph

Daily Weather History Graph

Search for Another Location

Airport or City:

Trip Planner

Search our weather history database for the weather conditions in past years. The results will help you decide how hot, cold, wet, or windy it might be!

Date:

Astronomy

Apr. 29, 2014 Rise Set
Actual Time 5:57 AM CDT 8:04 PM CDT
Civil Twilight 5:25 AM CDT 8:36 PM CDT
Nautical Twilight 4:46 AM CDT 9:15 PM CDT
Astronomical Twilight 4:03 AM CDT 9:59 PM CDT
Moon 6:16 AM CDT (4/29) 8:45 PM CDT (4/29)
Length of Visible Light 15h 10m
Length of Day
14h 07m
New Moon, 0% of the Moon is Illuminated
Apr 29
New Moon
May 6
First Quarter
May 14
Full
May 21
Last Quarter
May 28
New

Hourly Weather History & Observations

Time (CDT) Temp. Windchill Dew Point Humidity Pressure Visibility Wind Dir Wind Speed Gust Speed Precip Events Conditions
12:15 AM 42.8 °F 35.4 °F 35.6 °F 76% 29.65 in 10.0 mi ENE 15.0 mph 26.5 mph N/A   Light Drizzle
12:35 AM 42.1 °F 34.5 °F 36.3 °F 80% 29.65 in 10.0 mi East 15.0 mph 21.9 mph N/A   Light Drizzle
12:55 AM 41.9 °F 34.3 °F 36.5 °F 81% 29.65 in 10.0 mi East 15.0 mph 25.3 mph N/A   Light Drizzle
1:15 AM 42.1 °F 34.2 °F 36.1 °F 79% 29.64 in 10.0 mi ENE 16.1 mph 25.3 mph N/A   Overcast
1:35 AM 42.1 °F 34.9 °F 36.3 °F 80% 29.64 in 10.0 mi East 13.8 mph 20.7 mph N/A   Overcast
1:55 AM 42.3 °F 35.5 °F 36.0 °F 78% 29.63 in 10.0 mi ENE 12.7 mph 20.7 mph N/A   Overcast
2:15 AM 42.3 °F 35.1 °F 35.8 °F 78% 29.63 in 10.0 mi ENE 13.8 mph 20.7 mph N/A   Overcast
2:35 AM 41.2 °F 33.0 °F 36.9 °F 85% 29.62 in 7.0 mi East 16.1 mph 19.6 mph N/A Rain Light Rain
2:55 AM 41.0 °F 34.3 °F 37.2 °F 86% 29.62 in 7.0 mi ENE 11.5 mph 16.1 mph N/A Rain Light Rain
3:15 AM 40.5 °F 35.1 °F 38.7 °F 93% 29.61 in 10.0 mi ENE 8.1 mph 18.4 mph N/A Rain Light Rain
3:35 AM 40.1 °F 33.6 °F 39.2 °F 97% 29.60 in 10.0 mi ENE 10.4 mph - N/A Rain Light Rain
4:15 AM 40.1 °F 34.1 °F 39.2 °F 97% 29.59 in 10.0 mi ENE 9.2 mph - N/A Rain Light Rain
4:35 AM 39.7 °F 34.9 °F 39.2 °F 98% 29.59 in 7.0 mi ENE 6.9 mph 16.1 mph 0.01 in Rain Light Rain
4:55 AM 39.6 °F 32.5 °F 39.4 °F 99% 29.59 in 5.0 mi ENE 11.5 mph - 0.02 in Rain Rain
5:15 AM 39.6 °F 33.5 °F 39.6 °F 100% 29.59 in 5.0 mi ENE 9.2 mph - 0.01 in Rain Rain
5:35 AM 39.6 °F 33.0 °F 39.6 °F 100% 29.58 in 5.0 mi ENE 10.4 mph - 0.05 in Rain Rain
5:55 AM 39.6 °F 33.5 °F 39.6 °F 100% 29.58 in 7.0 mi ENE 9.2 mph - 0.08 in Rain Rain
6:15 AM 39.6 °F 33.0 °F 39.6 °F 100% 29.58 in 5.0 mi ENE 10.4 mph - 0.03 in Rain Rain
6:35 AM 39.2 °F 31.2 °F 38.7 °F 98% 29.58 in 4.0 mi ENE 13.8 mph 17.3 mph 0.08 in Rain Rain
6:55 AM 38.3 °F 31.9 °F 37.9 °F 99% 29.58 in 5.0 mi ENE 9.2 mph - 0.13 in Rain Rain
7:15 AM 38.5 °F 31.6 °F 38.3 °F 99% 29.59 in 5.0 mi ENE 10.4 mph - 0.03 in Rain Rain
7:55 AM 37.2 °F 28.3 °F 36.7 °F 98% 29.58 in 4.0 mi NE 15.0 mph 19.6 mph 0.10 in Rain Rain
8:15 AM 35.1 °F 26.4 °F 35.1 °F 100% 29.59 in 5.0 mi NE 12.7 mph 16.1 mph 0.04 in Snow Light Snow
8:35 AM 33.6 °F 26.8 °F 33.6 °F 100% 29.59 in 2.0 mi NE 8.1 mph - 0.08 in Snow Light Snow
8:55 AM 33.3 °F 27.9 °F 33.3 °F 100% 29.59 in 1.8 mi NE 5.8 mph - 0.11 in Snow Light Snow
9:15 AM 33.1 °F 27.7 °F 33.1 °F 100% 29.58 in 1.0 mi NNE 5.8 mph - 0.02 in Snow Light Snow
9:35 AM 33.1 °F 26.9 °F 33.1 °F 100% 29.58 in 4.0 mi NNE 6.9 mph - 0.02 in Snow Light Snow
9:55 AM 33.3 °F 28.9 °F 33.3 °F 100% 29.58 in 5.0 mi NNE 4.6 mph - 0.02 in Snow Light Snow
10:15 AM 33.6 °F 30.6 °F 33.6 °F 100% 29.58 in 7.0 mi NNE 3.5 mph - 0.01 in Snow Light Snow
10:35 AM 34.0 °F 29.8 °F 34.0 °F 100% 29.57 in 5.0 mi North 4.6 mph - 0.01 in Snow Snow
11:00 AM 35.1 °F 32.2 °F 35.1 °F 100% 29.57 in 7.0 mi North 3.5 mph - 0.01 in Rain Rain
11:15 AM 35.6 °F 32.8 °F 35.6 °F 100% 29.56 in 7.0 mi NNE 3.5 mph - 0.01 in Rain Rain
11:35 AM 36.7 °F 34.1 °F 36.7 °F 100% 29.56 in 7.0 mi North 3.5 mph - 0.02 in Rain Light Rain
11:55 AM 37.4 °F 32.1 °F 37.4 °F 100% 29.56 in 4.0 mi North 6.9 mph - 0.02 in Rain Light Rain
12:15 PM 38.5 °F 34.1 °F 38.5 °F 100% 29.56 in 2.0 mi North 5.8 mph - N/A   Light Drizzle
12:35 PM 38.5 °F 34.1 °F 38.5 °F 100% 29.56 in 3.0 mi North 5.8 mph - N/A   Overcast
12:55 PM 39.9 °F 33.9 °F 39.9 °F 100% 29.55 in 3.0 mi NE 9.2 mph - N/A   Overcast
1:15 PM 40.5 °F 34.6 °F 40.5 °F 100% 29.55 in 4.0 mi NE 9.2 mph - N/A   Overcast
1:35 PM 41.0 °F 35.8 °F 41.0 °F 100% 29.55 in 10.0 mi NE 8.1 mph - N/A   Overcast
1:55 PM 41.0 °F 35.8 °F 41.0 °F 100% 29.56 in 10.0 mi NE 8.1 mph - N/A   Overcast
2:15 PM 41.2 °F 35.5 °F 41.0 °F 99% 29.56 in 10.0 mi NE 9.2 mph - N/A   Overcast
2:35 PM 41.2 °F 35.5 °F 41.0 °F 99% 29.56 in 10.0 mi NE 9.2 mph - N/A   Light Drizzle
2:55 PM 41.4 °F 36.2 °F 41.0 °F 99% 29.57 in 10.0 mi NE 8.1 mph - N/A   Light Drizzle
3:15 PM 41.2 °F 37.3 °F 41.0 °F 99% 29.57 in 10.0 mi NNE 5.8 mph - N/A Rain Light Rain
3:35 PM 41.0 °F 35.8 °F 41.0 °F 100% 29.57 in 7.0 mi NNE 8.1 mph - N/A Rain Light Rain
3:55 PM 41.2 °F 36.6 °F 41.2 °F 100% 29.57 in 5.0 mi NNE 6.9 mph - 0.01 in Rain Light Rain
4:15 PM 41.4 °F 36.8 °F 41.4 °F 100% 29.58 in 7.0 mi NNE 6.9 mph - N/A Rain Light Rain
4:35 PM 41.5 °F 37.8 °F 41.5 °F 100% 29.58 in 7.0 mi NNE 5.8 mph - N/A Rain Light Rain
4:55 PM 41.4 °F 36.8 °F 41.4 °F 100% 29.58 in 4.0 mi NNE 6.9 mph - 0.01 in Rain Light Rain
5:15 PM 41.5 °F 37.8 °F 41.5 °F 100% 29.59 in 7.0 mi NNE 5.8 mph - 0.01 in Rain Light Rain
5:35 PM 41.7 °F 38.0 °F 41.7 °F 100% 29.60 in 10.0 mi NNE 5.8 mph - 0.01 in Rain Light Rain
5:55 PM 41.7 °F 38.0 °F 41.7 °F 100% 29.61 in 10.0 mi NNE 5.8 mph - 0.01 in Rain Light Rain
6:15 PM 41.7 °F 39.8 °F 41.7 °F 100% 29.61 in 10.0 mi North 3.5 mph - N/A Rain Light Rain
6:35 PM 41.9 °F 40.0 °F 41.9 °F 100% 29.62 in 7.0 mi North 3.5 mph - N/A Rain Rain
6:55 PM 41.7 °F 38.0 °F 41.7 °F 100% 29.62 in 5.0 mi North 5.8 mph - N/A Rain Light Rain
7:15 PM 41.9 °F 40.0 °F 41.9 °F 100% 29.63 in 5.0 mi North 3.5 mph - 0.01 in Rain Rain
7:35 PM 41.5 °F 38.6 °F 41.5 °F 100% 29.63 in 4.0 mi North 4.6 mph - 0.02 in Rain Rain
7:55 PM 41.5 °F 38.6 °F 41.5 °F 100% 29.63 in 7.0 mi North 4.6 mph - 0.03 in Rain Light Rain
8:15 PM 41.5 °F 38.6 °F 41.5 °F 100% 29.63 in 10.0 mi North 4.6 mph - N/A Rain Light Rain
8:35 PM 41.5 °F 37.8 °F 41.5 °F 100% 29.63 in 10.0 mi North 5.8 mph - N/A Rain Light Rain
8:55 PM 41.5 °F 37.8 °F 41.5 °F 100% 29.63 in 10.0 mi North 5.8 mph - N/A Rain Light Rain
9:15 PM 41.5 °F 39.6 °F 41.5 °F 100% 29.63 in 10.0 mi North 3.5 mph - N/A Rain Rain
9:35 PM 41.5 °F 38.6 °F 41.5 °F 100% 29.64 in 10.0 mi North 4.6 mph - N/A Rain Rain
9:55 PM 41.5 °F 39.6 °F 41.5 °F 100% 29.63 in 10.0 mi North 3.5 mph - N/A Rain Rain
10:15 PM 41.5 °F 38.6 °F 41.5 °F 100% 29.63 in 5.0 mi North 4.6 mph - N/A   Drizzle
10:35 PM 41.5 °F - 41.5 °F 100% 29.64 in 2.0 mi Calm Calm - N/A   Drizzle
10:55 PM 41.4 °F 38.4 °F 41.4 °F 100% 29.64 in 3.0 mi NNW 4.6 mph - N/A Rain Rain
11:15 PM 41.2 °F 38.2 °F 41.2 °F 100% 29.63 in 3.0 mi North 4.6 mph - N/A   Light Drizzle
11:35 PM 41.0 °F - 41.0 °F 100% 29.64 in 3.0 mi Calm Calm - N/A   Drizzle
11:55 PM 41.0 °F 38.0 °F 41.0 °F 100% 29.63 in 2.5 mi North 4.6 mph - N/A   Drizzle